Temperature
2 2 2 2 2 2 2 2 2 2 2 2 2 2 2 2 2 2 2 2 2 2 2 2 2 2 2 2 2 2 2 2 2 2 2 2 2 2 2 2 2 2 2
1 1 1 1 1 1 1 1 1 1 2 2 2 2 2 2 2 1 2 2 2 2 2 2 2 2 2 2 2 2 2 1 1 1 1 1 1 1 1 1 1 1 1
1 1 1 1 1 1 1 1 1 1 1 1 1 1 1 1 1 1 1 1 1 1 1 1 1 1 1 1 1 1 1 1 1 0 1 1 1 0 0 0 1 0 0
0 -0 0 0 0 0 0 0 0 0 0 1 1 1 0 0 0 0 0 0 1 1 1 1 1 1 1 1 1 1 0 0 0 -0 -0 0 -0 -0 -0 -0 -0 -0 -0
-0 -0 -0 -1 -1 -1 -1 -1 -1 -1 -0 -0 -0 0 -0 -0 -0 -0 -0 -0 -0 0 0 0 0 -0 -0 -0 0 -0 -0 -1 -1 -1 -1 -1 -1 -1 -1 -1 -1 -1 -1
-1 -1 -1 -1 -1 -1 -1 -1 -1 -1 -1 -1 -1 -1 -1 -1 -1 -1 -1 -1 -1 -1 -0 -0 -1 -1 -1 -1 -1 -1 -1 -1 -1 -1 -1 -1 -1 -1 -1 -1 -2 -2 -2
-2 -1 -2 -2 -2 -2 -2 -2 -2 -2 -2 -2 -2 -2 -2 -2 -2 -2 -2 -2 -1 -1 -1 -1 -1 -1 -1 -1 -1 -1 -1 -2 -2 -2 -2 -2 -2 -2 -2 -2 -2 -2 -2
-2 -2 -2 -3 -3 -3 -3 -3 -3 -3 -2 -2 -2 -2 -2 -2 -2 -2 -2 -2 -2 -2 -2 -2 -2 -2 -2 -2 -2 -2 -2 -2 -2 -2 -2 -2 -2 -2 -2 -3 -3 -3 -3
-3 -3 -3 -3 -4 -4 -4 -3 -3 -3 -3 -3 -3 -3 -3 -3 -3 -3 -3 -3 -3 -3 -2 -2 -2 -2 -2 -3 -3 -3 -3 -3 -3 -3 -3 -3 -2 -3 -3 -3 -4 -4 -4
-4 -4 -4 -4 -4 -4 -4 -4 -4 -4 -4 -4 -4 -4 -4 -3 -4 -4 -4 -4 -4 -3 -3 -3 -3 -3 -3 -3 -3 -3 -3 -3 -3 -3 -3 -3 -3 -3 -3 -4 -4 -4 -5
-4 -4 -5 -5 -5 -5 -5 -5 -5 -5 -5 -5 -5 -5 -4 -4 -4 -4 -5 -5 -4 -4 -4 -4 -3 -3 -4 -4 -4 -4 -4 -4 -4 -4 -4 -4 -4 -4 -4 -4 -4 -5 -5
-5 -5 -5 -5 -5 -5 -5 -5 -6 -6 -6 -6 -6 -5 -5 -5 -5 -5 -5 -5 -5 -5 -5 -4 -4 -4 -4 -4 -4 -4 -4 -5 -5 -5 -5 -5 -4 -4 -4 -5 -5 -5 -5
-6 -6 -6 -6 -6 -6 -6 -6 -6 -6 -7 -7 -7 -6 -6 -6 -6 -6 -6 -6 -5 -5 -5 -5 -5 -5 -5 -5 -5 -5 -5 -5 -5 -5 -5 -5 -5 -5 -5 -5 -6 -6 -6
-7 -7 -7 -7 -7 -7 -7 -7 -7 -7 -7 -7 -7 -7 -7 -6 -6 -6 -6 -6 -6 -6 -6 -6 -6 -6 -6 -6 -6 -6 -6 -6 -6 -6 -6 -5 -6 -6 -6 -6 -6 -7 -7
-7 -7 -7 -7 -7 -7 -7 -7 -7 -7 -8 -8 -8 -8 -7 -7 -7 -7 -7 -7 -7 -7 -7 -7 -6 -6 -6 -6 -6 -6 -6 -6 -6 -6 -6 -6 -6 -6 -7 -7 -7 -7 -7
-8 -8 -8 -8 -8 -8 -8 -8 -8 -8 -8 -8 -8 -8 -8 -8 -8 -8 -8 -7 -7 -7 -7 -7 -7 -7 -7 -7 -7 -7 -7 -7 -7 -7 -7 -7 -7 -7 -7 -8 -8 -8 -8
-9 -9 -9 -9 -9 -9 -9 -9 -9 -9 -9 -9 -9 -9 -9 -8 -8 -8 -8 -8 -8 -8 -8 -8 -8 -8 -8 -8 -8 -8 -8 -8 -8 -8 -8 -8 -8 -8 -8 -8 -8 -8 -8
-10 -10 -10 -10 -10 -10 -10 -10 -10 -10 -9 -9 -9 -9 -9 -9 -9 -9 -9 -9 -9 -9 -9 -9 -8 -8 -8 -8 -8 -8 -8 -8 -8 -8 -8 -8 -9 -9 -9 -9 -9 -9 -9
-11 -11 -11 -11 -11 -10 -10 -10 -10 -10 -10 -10 -10 -10 -10 -10 -9 -9 -9 -10 -10 -10 -9 -9 -9 -9 -9 -9 -9 -9 -9 -9 -9 -9 -9 -9 -9 -9 -9 -9 -9 -9 -10
-11 -11 -11 -11 -11 -11 -11 -11 -11 -11 -11 -11 -11 -11 -10 -10 -10 -10 -10 -10 -10 -10 -10 -10 -10 -10 -10 -10 -10 -10 -10 -10 -10 -10 -10 -10 -10 -10 -10 -10 -10 -10 -10
-12 -12 -12 -12 -12 -12 -12 -12 -12 -12 -12 -12 -11 -11 -11 -11 -11 -11 -11 -11 -11 -11 -10 -10 -10 -10 -10 -10 -10 -10 -10 -11 -11 -11 -11 -11 -11 -11 -11 -11 -10 -10 -10
-13 -13 -13 -13 -13 -13 -13 -13 -13 -13 -12 -12 -12 -12 -12 -11 -11 -11 -11 -11 -11 -11 -11 -11 -11 -11 -11 -11 -11 -11 -11 -11 -11 -11 -11 -11 -11 -11 -11 -11 -11 -11 -11
-13 -13 -13 -13 -13 -13 -13 -13 -13 -13 -13 -13 -13 -12 -12 -12 -12 -12 -12 -12 -12 -11 -11 -11 -11 -11 -11 -11 -11 -11 -11 -11 -11 -12 -12 -12 -12 -12 -12 -12 -11 -11 -11
-14 -14 -14 -14 -14 -14 -14 -14 -14 -14 -13 -13 -13 -13 -13 -13 -12 -12 -12 -12 -12 -12 -12 -12 -12 -12 -12 -12 -12 -12 -12 -12 -12 -12 -12 -12 -12 -12 -12 -12 -12 -12 -12
-14 -14 -14 -14 -14 -14 -14 -14 -14 -14 -14 -14 -14 -14 -13 -13 -13 -13 -13 -13 -13 -12 -12 -12 -12 -12 -12 -12 -12 -12 -12 -12 -12 -12 -12 -13 -13 -13 -12 -12 -12 -12 -12
-15 -15 -15 -15 -15 -15 -15 -15 -15 -15 -15 -15 -14 -14 -14 -14 -14 -14 -13 -13 -13 -13 -13 -13 -13 -13 -13 -13 -12 -12 -12 -12 -12 -13 -13 -13 -13 -13 -13 -13 -13 -13 -13
Wind_Speed
3 4 4 4 4 4 5 6 5 5 4 4 5 6 6 6 5 5 6 6 7 6 6 7 7 6 5 4 4 4 4 4 5 4 2 2 4 4 6 7 7 7 7
3 3 4 4 4 4 5 5 5 5 5 5 5 6 6 6 6 6 6 7 8 8 7 7 7 6 7 6 5 5 5 4 5 5 3 3 4 5 5 5 6 7 7
3 3 3 4 4 5 5 4 4 5 5 4 5 6 7 7 6 6 6 7 8 8 8 8 8 7 7 6 6 6 5 4 4 4 4 3 3 3 3 3 4 4 6
3 3 4 4 5 5 4 4 4 5 5 5 5 5 6 6 7 7 6 6 7 8 8 8 8 8 8 8 7 7 6 5 4 4 4 3 3 3 3 3 3 3 3
4 4 5 4 3 3 3 4 4 4 4 5 5 4 5 5 6 7 7 6 7 7 7 8 8 9 10 9 7 7 7 6 5 5 5 4 4 3 4 4 4 3 3
5 5 4 3 3 4 4 3 4 4 4 4 5 5 5 5 8 9 7 6 6 7 7 6 7 8 10 12 11 11 10 8 8 7 6 7 7 6 4 4 4 3 4
4 4 4 4 4 4 4 4 4 4 4 4 5 5 6 7 9 9 9 6 6 6 7 6 6 6 9 7 9 10 11 12 11 8 8 9 8 7 6 6 6 5 5
4 4 4 3 4 4 4 4 4 3 4 4 5 5 5 6 8 9 8 5 5 5 6 7 7 6 7 7 6 6 7 7 9 8 7 8 7 7 8 7 6 4 2
4 4 4 4 4 4 4 5 4 3 4 4 4 5 5 6 8 8 8 4 5 5 5 6 6 6 9 9 7 7 6 6 7 8 9 9 9 9 8 5 4 4 4
4 4 3 3 4 5 5 5 3 3 4 4 4 4 5 5 7 8 8 4 5 4 4 5 8 8 9 9 7 7 8 7 5 4 5 6 5 6 8 7 6 6 4
4 3 3 3 4 4 4 3 3 3 3 3 4 4 4 5 6 8 8 5 5 4 4 4 5 9 9 10 8 6 8 6 4 4 4 3 3 3 4 5 6 6 5
3 3 3 3 2 2 2 2 3 3 3 3 3 3 3 3 5 6 7 6 4 4 4 4 5 8 9 9 8 8 8 6 4 4 4 4 3 3 3 4 5 5 5
3 3 3 2 2 2 2 3 3 3 3 3 3 4 3 3 4 6 6 6 6 4 4 5 6 7 7 6 7 8 6 4 4 4 5 4 3 3 3 2 2 2 2
3 3 3 2 2 1 2 2 3 3 4 4 4 4 4 3 3 3 3 4 5 4 3 4 5 5 4 4 4 4 3 3 4 5 4 3 2 2 3 2 2 2 2
3 3 3 2 2 2 2 2 3 3 4 5 5 5 5 5 5 6 5 4 4 3 2 2 2 2 3 3 2 3 2 3 3 3 3 3 3 3 3 2 2 2 3
3 3 3 2 2 2 2 2 3 4 5 6 6 6 6 7 7 7 8 7 6 5 3 2 3 3 4 4 4 3 3 3 3 3 3 3 3 3 3 2 2 3 3
3 3 3 2 2 2 2 2 3 3 5 5 5 5 6 6 6 7 7 6 5 4 3 3 3 3 3 3 3 3 3 3 3 3 3 4 3 3 3 3 3 3 3
3 4 3 2 2 2 2 2 3 3 3 3 4 5 5 5 5 5 4 3 3 3 2 3 3 3 3 3 4 3 3 3 3 3 3 4 4 3 4 4 4 4 4
3 3 3 2 2 2 2 2 2 3 3 3 3 3 4 4 3 2 1 2 2 3 3 3 3 3 3 3 3 3 3 4 3 3 4 4 4 4 4 4 4 6 4
3 5 4 2 2 2 2 2 2 2 2 2 2 3 2 2 2 2 2 2 2 3 3 3 3 3 3 3 3 3 3 3 4 4 4 4 4 4 5 5 5 5 5
3 4 5 3 2 2 2 2 2 2 2 2 3 3 3 2 2 3 2 2 3 3 3 3 3 3 3 3 3 4 4 4 4 4 4 4 4 4 4 5 5 5 4
3 3 3 3 3 3 2 2 2 2 2 2 3 3 4 2 1 2 2 2 3 3 3 3 3 3 3 3 4 4 5 5 5 4 4 4 4 4 4 4 4 4 4
3 3 3 3 3 4 3 2 2 2 2 2 2 2 2 2 2 2 2 2 3 3 3 3 3 3 3 4 5 5 6 6 6 6 5 5 5 5 4 5 5 5 5
2 2 3 3 3 2 2 2 2 2 2 2 2 2 2 2 2 3 3 3 3 3 3 3 3 4 5 5 5 6 7 7 7 7 7 6 6 5 5 5 6 6 6
2 2 3 3 2 2 2 2 2 2 2 2 2 2 2 2 2 2 3 3 3 3 3 4 4 4 6 6 7 7 9 10 10 9 8 6 7 7 7 7 6 6 6
2 3 3 3 2 2 2 2 2 2 2 3 2 2 2 2 2 3 3 3 3 3 3 4 5 6 7 7 8 10 11 11 12 11 9 6 7 7 7 7 7 7 7
Wind_Direction
213 215 207 209 206 205 212 214 211 208 204 210 213 213 211 206 204 206 212 206 208 209 209 207 212 207 208 210 212 205 207 207 229 246 237 217 205 214 221 224 228 233 240
217 215 213 215 212 215 222 221 213 211 207 208 209 216 218 214 208 208 213 210 208 210 212 211 217 212 213 211 212 211 211 209 214 235 240 218 221 217 210 214 225 231 236
216 213 215 216 217 223 229 225 218 215 215 212 209 213 216 216 214 216 214 217 211 212 211 213 215 210 217 216 217 215 213 213 212 221 231 223 224 216 214 228 228 227 236
213 214 220 223 224 228 227 223 220 216 215 215 211 213 216 218 218 216 218 223 219 218 214 214 213 212 217 216 218 215 210 206 206 215 225 221 220 216 206 222 242 237 240
216 222 229 230 227 226 225 225 224 220 220 211 205 209 214 218 220 215 214 219 223 220 221 218 218 221 223 222 219 209 203 208 207 213 220 221 220 206 216 215 230 245 254
223 227 229 223 222 222 222 221 221 222 222 211 208 209 214 226 234 230 222 217 223 222 224 228 228 227 232 233 231 222 210 208 211 214 221 221 223 218 212 214 216 226 254
235 232 228 218 221 225 221 217 220 220 219 218 213 215 222 230 232 231 228 221 222 225 221 224 232 229 231 224 231 231 226 226 220 214 222 223 221 213 207 215 218 224 238
244 238 232 223 224 223 216 219 222 222 221 224 221 220 224 233 233 234 234 220 225 233 225 220 222 228 228 220 217 223 226 226 226 222 222 224 223 214 208 213 220 229 259
252 247 239 228 225 223 224 227 224 224 231 231 226 219 224 235 236 235 232 218 228 236 238 222 220 222 231 228 217 220 228 234 236 236 237 238 236 227 210 190 199 214 246
263 263 250 235 226 227 229 229 228 229 236 239 241 234 232 235 236 235 231 219 229 237 242 231 230 229 226 224 216 213 224 229 223 233 242 249 238 224 216 206 202 213 232
292 287 264 245 238 236 231 226 219 225 232 237 245 249 240 237 237 234 231 224 219 226 239 235 231 231 232 228 224 219 229 228 214 217 230 234 231 221 221 218 212 213 217
309 299 278 257 249 249 227 225 217 214 222 232 242 254 252 246 240 236 235 237 227 222 239 238 232 233 235 236 232 230 234 233 209 211 223 230 228 227 221 221 219 218 222
323 312 305 292 268 250 223 220 216 212 216 227 229 241 253 252 247 247 244 249 245 236 246 249 242 235 233 234 236 232 226 215 206 214 222 228 223 215 207 211 211 207 231
319 315 312 304 291 274 244 222 218 218 220 229 234 239 250 252 247 240 245 256 256 260 266 263 248 235 234 238 236 230 218 209 208 213 215 215 200 195 203 205 222 217 249
315 312 310 302 284 279 263 239 235 236 228 229 232 234 236 241 242 241 238 236 227 235 238 255 232 226 223 223 222 220 208 207 216 203 201 202 205 208 217 203 213 217 231
318 317 309 298 288 277 263 286 276 266 262 256 251 247 249 252 251 248 247 248 239 229 226 227 230 226 225 224 221 223 219 214 211 206 203 205 208 209 217 219 214 216 231
306 307 304 299 289 276 268 259 280 295 285 278 269 264 261 259 252 251 251 244 232 219 226 225 228 228 227 224 223 222 227 225 214 211 213 210 209 212 213 219 222 225 237
315 304 309 305 297 282 268 266 261 259 281 294 297 287 281 277 265 259 247 228 226 221 226 220 226 229 227 224 223 226 228 221 215 215 213 211 209 210 213 219 221 225 234
321 317 316 310 301 290 279 273 271 263 263 279 301 301 295 296 295 289 237 211 216 225 232 228 227 229 230 227 225 223 222 222 218 216 215 213 211 208 216 221 222 226 233
315 314 324 315 307 302 290 278 276 278 276 269 269 280 291 295 282 280 268 241 227 235 236 235 232 229 228 223 221 217 216 219 215 216 218 217 217 214 217 221 223 222 228
322 320 325 328 321 313 301 285 283 283 284 287 287 284 267 252 249 252 252 250 237 237 238 240 236 230 228 223 218 215 216 221 219 216 217 218 216 218 223 224 225 224 224
326 326 327 325 325 319 314 305 292 286 284 287 300 303 296 294 262 260 262 264 258 250 245 241 239 239 234 227 218 215 218 221 220 217 218 220 219 223 225 225 223 222 222
324 326 328 328 323 317 326 332 323 310 299 292 293 299 305 301 285 276 272 271 269 262 252 242 243 246 245 237 229 220 221 224 223 215 215 219 220 222 222 224 221 220 223
325 322 320 318 318 318 316 317 316 311 308 304 302 299 299 297 292 288 281 278 278 279 267 255 246 243 245 248 243 235 231 230 225 219 213 216 223 225 223 225 225 223 220
333 323 315 310 308 310 311 313 313 311 309 309 307 305 303 300 296 292 285 279 278 276 274 266 258 250 246 246 246 244 244 244 241 228 216 212 218 221 222 224 226 222 217
329 325 321 317 313 312 308 306 308 310 309 308 308 307 303 298 294 290 284 278 275 278 280 273 261 254 254 253 252 250 250 250 247 240 227 217 217 222 221 224 218 215 212
Height
1471 1472 1473 1474 1475 1477 1478 1479 1480 1481 1482 1483 1484 1486 1487 1489 1492 1492 1494 1496 1499 1501 1502 1504 1506 1508 1510 1512 1513 1515 1516 1518 1518 1518 1521 1522 1524 1525 1526 1527 1527 1528 1528
1467 1468 1469 1469 1471 1472 1473 1474 1475 1476 1477 1478 1479 1480 1481 1483 1485 1487 1488 1490 1492 1494 1496 1498 1500 1502 1504 1506 1507 1509 1510 1512 1513 1512 1514 1516 1518 1519 1520 1521 1522 1522 1523
1463 1464 1464 1465 1466 1467 1468 1469 1469 1470 1471 1472 1473 1474 1475 1477 1479 1481 1483 1484 1486 1488 1490 1492 1494 1496 1497 1499 1501 1502 1504 1506 1507 1508 1508 1510 1512 1514 1514 1515 1516 1516 1517
1459 1459 1459 1460 1460 1461 1462 1463 1464 1464 1465 1466 1467 1468 1469 1471 1473 1475 1476 1478 1480 1482 1484 1486 1487 1489 1491 1493 1494 1496 1498 1499 1501 1502 1503 1504 1506 1508 1508 1509 1509 1511 1511
1453 1453 1454 1455 1455 1456 1457 1457 1458 1459 1459 1460 1461 1462 1464 1465 1466 1468 1470 1472 1474 1475 1477 1479 1481 1483 1485 1487 1489 1490 1492 1493 1495 1496 1497 1498 1500 1501 1502 1503 1504 1505 1505
1449 1448 1449 1449 1450 1451 1451 1452 1453 1453 1454 1455 1456 1457 1458 1459 1461 1463 1464 1466 1467 1469 1471 1473 1475 1477 1479 1481 1483 1484 1486 1487 1488 1490 1491 1492 1493 1495 1497 1498 1498 1498 1498
1444 1444 1444 1444 1445 1446 1446 1446 1447 1447 1448 1449 1450 1451 1452 1454 1456 1457 1459 1461 1462 1463 1465 1466 1468 1470 1473 1475 1476 1478 1479 1481 1483 1484 1485 1486 1488 1489 1491 1491 1492 1492 1493
1439 1439 1439 1439 1439 1440 1440 1441 1441 1442 1442 1443 1444 1445 1446 1448 1450 1452 1453 1455 1456 1458 1459 1460 1462 1464 1467 1468 1470 1471 1473 1475 1476 1478 1479 1480 1482 1483 1484 1486 1486 1487 1487
1435 1435 1435 1434 1435 1435 1435 1436 1436 1436 1436 1437 1438 1439 1441 1442 1444 1446 1448 1449 1450 1451 1453 1455 1456 1458 1460 1462 1464 1465 1466 1468 1470 1472 1473 1474 1476 1477 1478 1480 1480 1481 1480
1431 1431 1431 1430 1430 1430 1431 1431 1431 1431 1431 1432 1433 1434 1435 1436 1439 1441 1442 1443 1444 1445 1447 1449 1450 1452 1454 1455 1457 1458 1460 1461 1464 1465 1467 1468 1469 1471 1472 1473 1474 1475 1474
1428 1427 1427 1427 1427 1427 1427 1427 1427 1427 1427 1427 1428 1429 1430 1431 1433 1435 1436 1437 1438 1439 1440 1442 1444 1446 1447 1449 1451 1453 1454 1456 1457 1459 1460 1461 1463 1464 1465 1467 1468 1469 1469
1425 1424 1423 1423 1423 1422 1422 1422 1423 1423 1423 1423 1423 1424 1425 1427 1428 1429 1431 1432 1433 1434 1435 1436 1438 1440 1442 1444 1445 1447 1449 1451 1452 1453 1454 1455 1456 1457 1459 1461 1462 1463 1464
1421 1420 1420 1419 1419 1418 1418 1418 1419 1419 1419 1419 1419 1419 1420 1422 1423 1425 1425 1427 1428 1430 1430 1432 1434 1435 1437 1438 1440 1442 1443 1444 1445 1446 1447 1449 1451 1452 1454 1455 1456 1457 1458
1418 1417 1416 1416 1415 1415 1415 1415 1415 1415 1415 1415 1415 1415 1416 1417 1418 1419 1420 1422 1423 1425 1426 1427 1429 1430 1432 1433 1434 1436 1437 1439 1440 1441 1442 1444 1446 1447 1448 1449 1450 1451 1452
1415 1414 1413 1413 1412 1411 1411 1411 1411 1411 1411 1411 1411 1411 1412 1412 1414 1415 1416 1417 1418 1420 1421 1422 1424 1425 1426 1427 1428 1430 1432 1433 1435 1436 1437 1438 1440 1441 1443 1444 1445 1446 1446
1412 1411 1410 1409 1409 1408 1408 1408 1408 1408 1408 1408 1408 1409 1408 1410 1410 1411 1412 1413 1415 1416 1417 1417 1418 1419 1420 1421 1423 1424 1426 1428 1429 1430 1432 1433 1435 1436 1437 1438 1439 1440 1440
1409 1408 1407 1406 1406 1405 1405 1404 1404 1404 1404 1404 1404 1404 1405 1405 1406 1407 1408 1409 1410 1412 1412 1412 1413 1414 1416 1417 1418 1419 1421 1422 1424 1425 1426 1428 1429 1430 1432 1433 1434 1434 1435
1407 1406 1404 1403 1403 1402 1402 1401 1401 1400 1399 1399 1400 1400 1401 1401 1402 1403 1404 1405 1406 1407 1408 1408 1409 1410 1411 1412 1413 1414 1416 1417 1418 1420 1421 1422 1424 1425 1426 1427 1428 1429 1429
1404 1403 1402 1401 1400 1399 1399 1398 1398 1397 1396 1396 1396 1397 1397 1397 1398 1399 1400 1400 1401 1402 1403 1404 1405 1406 1407 1407 1408 1409 1411 1412 1413 1414 1415 1417 1418 1419 1420 1421 1422 1423 1424
1402 1401 1399 1398 1397 1396 1396 1395 1394 1394 1393 1393 1393 1393 1393 1393 1393 1394 1395 1396 1397 1398 1399 1399 1400 1401 1402 1402 1403 1404 1405 1406 1407 1408 1410 1411 1413 1414 1415 1416 1417 1417 1418
1399 1398 1397 1396 1395 1394 1393 1392 1391 1391 1390 1390 1390 1390 1390 1390 1390 1390 1391 1392 1392 1393 1394 1395 1395 1396 1396 1397 1398 1399 1400 1400 1402 1403 1404 1405 1407 1408 1409 1410 1411 1412 1413
1397 1396 1395 1394 1393 1392 1391 1390 1389 1388 1388 1387 1387 1387 1387 1387 1386 1387 1387 1388 1389 1389 1390 1390 1390 1391 1392 1392 1393 1394 1394 1395 1396 1397 1398 1399 1401 1402 1403 1404 1405 1406 1407
1395 1394 1392 1391 1390 1389 1388 1388 1387 1386 1385 1385 1384 1384 1383 1383 1383 1384 1384 1384 1384 1385 1385 1386 1386 1386 1387 1387 1388 1389 1389 1389 1390 1391 1392 1393 1395 1396 1397 1398 1399 1400 1401
1393 1392 1390 1389 1388 1387 1386 1385 1384 1383 1383 1382 1381 1381 1380 1380 1380 1380 1380 1380 1380 1380 1381 1381 1381 1381 1382 1382 1383 1383 1383 1384 1385 1386 1387 1388 1389 1390 1391 1392 1393 1394 1395
1391 1390 1388 1387 1385 1384 1383 1382 1381 1381 1380 1379 1379 1378 1377 1377 1377 1376 1376 1376 1376 1376 1376 1376 1376 1376 1376 1377 1377 1378 1378 1379 1379 1380 1381 1382 1383 1384 1385 1386 1387 1388 1389
1389 1388 1386 1385 1383 1382 1381 1380 1379 1378 1377 1377 1376 1375 1375 1374 1373 1373 1372 1372 1372 1371 1371 1371 1371 1371 1371 1371 1372 1372 1372 1373 1373 1374 1375 1376 1377 1378 1379 1380 1381 1382 1383